[[{"header":{"parameterUnit":"m.s-1","parameterCategory":1,"la1":30.2991,"la2":30.254,"lo1":-89.0895,"lo2":-89.0444,"dy":0.0017,"dx":0.0017,"nx":28,"ny":28,"refTime":"2024-07-16T03:00:00:Z","depth":0,"parameterNumber":2,"parameterNumberName":"U-component_of_WINDS"},"data":[0,0,0,0,0,0,0,0,0,0,0,0,0,0,0,0,0,0,0,0,0,0,0,0,0,0,0,0,0,0,0,0,0,0,0,0,0,0,0,0,0,0,0,0,0,0,0,0,0,0,0,0,0,0,0,0,0,0,0.8425,0.8426,0,0.8551,0.8553,0.8554,0.8581,0.8581,0.858,0.8579,0.871,0.8715,0.8719,0,0,0,0,0,0,0,0,0,0,0,0,0,0.8207,0.8211,0.8424,0.8426,0.8428,0.8551,0.8553,0.8554,0.8582,0.8581,0.8579,0.8578,0.8709,0.8714,0.8719,0,0,0,0,0,0,0,0,0,0,0,0,0,0.8315,0.8212,0.8424,0.8456,0.846,0.8551,0.8553,0.8555,0.8582,0.858,0.8579,0.8578,0.8707,0.8714,0.872,0.8788,0,0,0.874,0.8743,0,0,0,0,0,0,0,0,0.8308,0.8323,0.845,0.8454,0.8459,0.8549,0.8524,0.8633,0.8582,0.8536,0.8579,0.8577,0.8658,0.8668,0.8695,0.8794,0.88,0.8741,0.8745,0.8747,0.8749,0,0,0,0,0,0,0,0.8301,0.8317,0.8475,0.8452,0.8457,0.8464,0.8478,0.8545,0.8603,0.854,0.8542,0.8556,0.866,0.8689,0.8699,0.8802,0.8741,0.8746,0.875,0.8753,0.8962,0.8964,0,0,0,0,0,0,0.8288,0.8311,0.8471,0.8478,0.8379,0.8469,0.8485,0.8521,0.8602,0.8613,0.8557,0.8557,0.8678,0.8691,0.8703,0.8787,0.8747,0.8754,0.8757,0.8961,0.8963,0.8964,0,0,0,0,0,0,0.8283,0.8302,0.8465,0.8395,0.8417,0.8475,0.8516,0.8525,0.8553,0.8616,0.8627,0.8576,0.8678,0.8694,0.8767,0.8792,0.8757,0.8762,0.8959,0.8961,0.8964,0.8956,0,0,0,0,0,0,0.8277,0.83,0.8326,0.8396,0.842,0.8526,0.8517,0.8528,0.8564,0.8565,0.8636,0.8647,0.8678,0.8757,0.8773,0.8801,0.8768,0.8957,0.896,0.8963,0.8955,0.8958,0.8962,0,0,0,0,0,0.8269,0.832,0.8327,0.8346,0.8454,0.8527,0.8542,0.8576,0.8566,0.8593,0.8633,0.8644,0.8787,0.8764,0.8783,0.8813,0.8955,0.8959,0.8963,0.8953,0.8958,0.8961,0,0,0,0,0,0,0.8253,0.833,0.8339,0.8414,0.8464,0.8532,0.8567,0.858,0.8634,0.8633,0.8674,0.869,0.8759,0.8794,0.8766,0.8882,0.8871,0.8878,0.8857,0.8862,0.8865,0.8855,0.8773,0,0,0,0,0,0.8258,0.831,0.8375,0.8435,0.8459,0.8509,0.8542,0.8564,0.8618,0.8639,0.8685,0.8737,0.8793,0.883,0.8886,0.896,0.8975,0.899,0.8993,0.8996,0.9002,0.9042,0.9049,0.8976,0.8976,0.8976,0,0,0.8269,0.8318,0.8348,0.8433,0.8474,0.8528,0.8526,0.8584,0.8624,0.8648,0.8719,0.8754,0.8815,0.8888,0.8923,0.8919,0.9025,0.9001,0.9002,0.9007,0.9047,0.9054,0.906,0.8979,0.8979,0.8978,0,0,0.8316,0.8359,0.8413,0.8454,0.8516,0.8548,0.8561,0.8628,0.8651,0.8723,0.8742,0.8791,0.8888,0.893,0.8964,0.9026,0.9038,0.9044,0.9061,0.91,0.9106,0.9111,0.9132,0.914,0.9049,0.9049,0.9049,0,0.8323,0.8404,0.8439,0.8495,0.8531,0.8555,0.8609,0.8648,0.8726,0.875,0.8744,0.8865,0.8908,0.8991,0.9006,0.9034,0.9049,0.9035,0.9102,0.9108,0.9113,0.9134,0.9142,0.9049,0.9049,0.9049,0.9049,0,0.8407,0.8463,0.8499,0.8572,0.8613,0.8668,0.8711,0.8748,0.8767,0.88,0.8872,0.8924,0.899,0.9011,0.9031,0.9097,0.9092,0.9094,0.9083,0.912,0.914,0.9148,0.905,0.905,0.9049,0.9049,0,0,0.8448,0.8539,0.8552,0.8584,0.8654,0.8698,0.8754,0.8818,0.8848,0.8901,0.8949,0.9029,0.9031,0.907,0.9094,0.9129,0.9173,0.9126,0.9128,0.9132,0.9248,0.9245,0.9254,0.9182,0.9184,0.9185,0.9242,0,0.8503,0.8602,0.8635,0.8718,0.877,0.8793,0.8842,0.889,0.8922,0.8971,0.9007,0.9063,0.9062,0.9085,0.9121,0.916,0.9197,0.9157,0.9226,0.9228,0.9209,0.9264,0.9262,0.9314,0.9251,0.9252,0.9253,0,0.858,0.8632,0.872,0.8782,0.8805,0.8848,0.8908,0.8955,0.901,0.9031,0.9074,0.9095,0.9155,0.9141,0.9223,0.9195,0.9225,0.9249,0.9252,0.9259,0.9242,0.9272,0.9331,0.9338,0.9266,0.9265,0.9264,0,0.8599,0.8692,0.8756,0.8783,0.8858,0.8888,0.892,0.8974,0.901,0.9063,0.9086,0.9146,0.9179,0.9225,0.9261,0.9248,0.934,0.9329,0.9359,0.9358,0.9376,0.9374,0.944,0.9398,0.9398,0.9397,0.9397,0,0.8656,0.8708,0.8765,0.8804,0.8863,0.8901,0.8959,0.8993,0.904,0.9087,0.9112,0.9155,0.9201,0.9251,0.928,0.9343,0.9358,0.9376,0.9383,0.9373,0.9371,0.9393,0.939,0.94,0.9399,0.9399,0.9398,0,0.8687,0.8727,0.8798,0.8862,0.888,0.892,0.8976,0.9015,0.9048,0.9107,0.9122,0.9175,0.9234,0.9275,0.9352,0.9372,0.9439,0.9447,0.942,0.9423,0.9449,0.9446,0.9531,0.9544,0.9494,0.9494,0.9494,0,0.872,0.876,0.8829,0.8861,0.8893,0.8945,0.8982,0.902,0.9057,0.9123,0.9154,0.9214,0.9265,0.9358,0.9403,0.9462,0.947,0.9496,0.9479,0.9467,0.9469,0.9465,0.9469,0.9498,0.9498,0.9498,0.9499,0,0.8773,0.8791,0.8842,0.8899,0.8941,0.8989,0.9037,0.9062,0.9109,0.9149,0.921,0.9249,0.9326,0.9386,0.9448,0.9483,0.9498,0.9504,0.9513,0.9503,0.9485,0.9494,0.9425,0.9501,0.9501,0.9501,0.9501,0.9501,0.8806,0.8842,0.8896,0.8951,0.8991,0.9035,0.9074,0.9112,0.9162,0.9227,0.9248,0.931,0.9364,0.9449,0.9484,0.9534,0.9532,0.9546,0.955,0.9552,0.9551,0.9478,0.9546,0.9546,0.9546,0.9546,0.9546,0,0.8859,0.8895,0.8945,0.9011,0.9054,0.9065,0.9118,0.9154,0.9208,0.9256,0.9305,0.9374,0.9432,0.9481,0.9541,0.9571,0.958,0.9585,0.9583,0.959,0.955,0.9535,0.9577,0.9577,0.9577,0.9577,0.9577,0.9577,0.8892,0.8954,0.8978,0.906,0.9095,0.9155,0.9185,0.9225,0.9264,0.9339,0.9387,0.9418,0.9467,0.9531,0.9584,0.9597,0.9618,0.9621,0.9636,0.9597,0.9593,0.959,0.9576,0.9626,0.9626,0.9672,0.9672,0.9673]},{"header":{"parameterUnit":"m.s-1","parameterCategory":1,"la1":30.2991,"la2":30.254,"lo1":-89.0895,"lo2":-89.0444,"dy":0.0017,"dx":0.0017,"nx":28,"ny":28,"refTime":"2024-07-16T03:00:00:Z","depth":0,"parameterNumber":3,"parameterNumberName":"V-component_of_WINDS"},"data":[0,0,0,0,0,0,0,0,0,0,0,0,0,0,0,0,0,0,0,0,0,0,0,0,0,0,0,0,0,0,0,0,0,0,0,0,0,0,0,0,0,0,0,0,0,0,0,0,0,0,0,0,0,0,0,0,0,0,0.8672,0.8673,0,0.8708,0.8709,0.8709,0.8732,0.8732,0.8732,0.8732,0.8768,0.8768,0.8769,0,0,0,0,0,0,0,0,0,0,0,0,0,0.8621,0.8622,0.8672,0.8673,0.8673,0.8708,0.8709,0.8709,0.8732,0.8732,0.8732,0.8732,0.8767,0.8768,0.8769,0,0,0,0,0,0,0,0,0,0,0,0,0,0.8649,0.8622,0.8672,0.8689,0.8691,0.8708,0.8709,0.8709,0.8732,0.8732,0.8732,0.8732,0.8767,0.8768,0.8769,0.8773,0,0,0.8773,0.8774,0,0,0,0,0,0,0,0,0.8647,0.8651,0.8686,0.8688,0.869,0.8716,0.8704,0.8731,0.8732,0.8716,0.8732,0.8733,0.875,0.8753,0.8759,0.8775,0.8776,0.8773,0.8774,0.8775,0.8775,0,0,0,0,0,0,0,0.8645,0.8649,0.8687,0.8686,0.8689,0.8694,0.8698,0.8709,0.8732,0.8718,0.8719,0.8723,0.8751,0.8758,0.876,0.8777,0.8773,0.8774,0.8775,0.8776,0.8796,0.8796,0,0,0,0,0,0,0.8641,0.8648,0.8685,0.8688,0.8669,0.8695,0.8699,0.8707,0.8732,0.8735,0.8723,0.8724,0.8756,0.8759,0.8761,0.8767,0.8775,0.8776,0.8776,0.8797,0.8796,0.8796,0,0,0,0,0,0,0.864,0.8644,0.8684,0.8668,0.8674,0.8695,0.8704,0.8708,0.8715,0.8736,0.874,0.8726,0.8756,0.876,0.877,0.8768,0.8776,0.8777,0.8797,0.8796,0.8796,0.8778,0,0,0,0,0,0,0.8638,0.8644,0.8646,0.8668,0.8674,0.8692,0.8704,0.8708,0.8717,0.8719,0.8739,0.8743,0.8756,0.8768,0.8771,0.877,0.8778,0.8797,0.8797,0.8796,0.8779,0.8777,0.8776,0,0,0,0,0,0.8637,0.8639,0.8646,0.865,0.8677,0.8692,0.8696,0.8712,0.8717,0.8718,0.8732,0.8742,0.8768,0.8769,0.8773,0.8772,0.8797,0.8797,0.8796,0.878,0.8777,0.8776,0,0,0,0,0,0,0.8615,0.8642,0.865,0.866,0.8674,0.8696,0.8699,0.8709,0.8721,0.8723,0.8741,0.8746,0.8754,0.8764,0.8764,0.8776,0.8784,0.8784,0.877,0.8768,0.8766,0.8764,0.8779,0,0,0,0,0,0.8612,0.8622,0.8645,0.8651,0.8658,0.8677,0.8684,0.8695,0.871,0.8716,0.873,0.8744,0.8755,0.8762,0.8774,0.878,0.8785,0.8782,0.878,0.8779,0.8779,0.8783,0.8782,0.8795,0.8795,0.8795,0,0,0.8605,0.8621,0.8626,0.8647,0.866,0.8669,0.8682,0.8692,0.8699,0.8717,0.8728,0.8739,0.8755,0.8764,0.8768,0.8772,0.8776,0.8778,0.8777,0.8778,0.8782,0.8781,0.878,0.8795,0.8795,0.8795,0,0,0.8597,0.861,0.8617,0.8628,0.8647,0.8659,0.8661,0.8682,0.869,0.8701,0.8715,0.8724,0.8743,0.8754,0.8762,0.8757,0.8767,0.876,0.8752,0.8756,0.8755,0.8754,0.8752,0.8751,0.876,0.876,0.876,0,0.8585,0.8601,0.8619,0.8628,0.8637,0.8654,0.8661,0.8671,0.8692,0.8697,0.8702,0.8726,0.8738,0.8749,0.8748,0.8754,0.8756,0.8758,0.8754,0.8753,0.8752,0.8751,0.875,0.8759,0.876,0.876,0.876,0,0.8586,0.8597,0.86,0.862,0.8629,0.8637,0.8655,0.8662,0.8672,0.8684,0.8695,0.871,0.8725,0.8729,0.8738,0.8741,0.8743,0.875,0.8758,0.875,0.8749,0.8748,0.8758,0.8758,0.8759,0.8759,0,0,0.8566,0.8596,0.8596,0.8606,0.8627,0.8635,0.8643,0.8658,0.8664,0.8677,0.8685,0.87,0.8707,0.8716,0.8727,0.873,0.8726,0.8737,0.8738,0.8734,0.8729,0.8723,0.8722,0.8732,0.8732,0.8732,0.8727,0,0.8561,0.8577,0.8593,0.8604,0.8613,0.863,0.8637,0.865,0.8662,0.8671,0.8684,0.8694,0.8703,0.8708,0.8712,0.8725,0.8725,0.8726,0.8738,0.8739,0.8734,0.8722,0.8716,0.8711,0.8727,0.8727,0.8727,0,0.8557,0.8571,0.8582,0.8602,0.8607,0.8613,0.8628,0.8637,0.8652,0.866,0.867,0.8682,0.8691,0.8698,0.871,0.871,0.8716,0.8723,0.8724,0.8725,0.8732,0.8723,0.8709,0.8708,0.8727,0.8727,0.8727,0,0.8541,0.8562,0.8571,0.8579,0.8603,0.8606,0.8616,0.8632,0.864,0.8653,0.8658,0.8671,0.8678,0.8688,0.8703,0.8706,0.8713,0.8721,0.8719,0.8719,0.872,0.872,0.8707,0.8724,0.8724,0.8724,0.8724,0,0.8534,0.854,0.8564,0.857,0.8578,0.8595,0.8602,0.8613,0.8627,0.8635,0.865,0.8657,0.8676,0.8685,0.8697,0.8705,0.8708,0.8714,0.8717,0.8713,0.8712,0.8717,0.8717,0.8724,0.8724,0.8724,0.8724,0,0.8517,0.8533,0.8545,0.8567,0.8572,0.8576,0.8595,0.8601,0.8613,0.8623,0.8626,0.8645,0.8656,0.8672,0.8688,0.8696,0.8702,0.8707,0.8697,0.8699,0.8696,0.8696,0.8686,0.8686,0.8703,0.8703,0.8703,0,0.8511,0.8516,0.8538,0.8545,0.8555,0.8565,0.8573,0.8591,0.8599,0.8616,0.862,0.8633,0.8644,0.8661,0.8676,0.8688,0.8693,0.8689,0.8695,0.869,0.8692,0.8692,0.8692,0.8687,0.8687,0.8686,0.8686,0,0.8498,0.8506,0.8518,0.8532,0.8542,0.8554,0.8566,0.8571,0.8591,0.8599,0.8611,0.8619,0.8636,0.8648,0.8662,0.8672,0.8682,0.8684,0.8684,0.868,0.8674,0.8677,0.8693,0.8684,0.8684,0.8685,0.8685,0.8685,0.8487,0.8492,0.8509,0.8521,0.8532,0.8544,0.855,0.8564,0.8574,0.8589,0.8599,0.861,0.8625,0.8645,0.8654,0.8663,0.8667,0.8668,0.8668,0.8668,0.8666,0.8673,0.8666,0.8666,0.8666,0.8666,0.8666,0,0.8475,0.8486,0.8498,0.8515,0.8524,0.8534,0.8548,0.8555,0.8566,0.8579,0.8589,0.8603,0.8615,0.863,0.8643,0.8647,0.8652,0.865,0.8649,0.8651,0.8662,0.866,0.8645,0.8645,0.8645,0.8645,0.8645,0.8645,0.847,0.848,0.8489,0.8505,0.8516,0.8528,0.8535,0.8545,0.8556,0.8571,0.8581,0.8591,0.8605,0.8619,0.863,0.8634,0.8638,0.8634,0.864,0.8649,0.8651,0.8652,0.8651,0.8635,0.8635,0.8629,0.8629,0.8629]}]]